| time (UTC) | temp C | wind direction | speed KPH | gust KPH | rain 1hr cm | rain 24hr cm | rain mn cm | humidity % | barometer mb |
| 20260507211620 | 14 | 252 | 14.5 | 25.7 | 0.00 | 0.00 | 0.00 | 48 | 1009.6 |
| 20260507210059 | 14 | 272 | 12.9 | 24.1 | 0.00 | 0.00 | 0.00 | 51 | 1009.4 |
| 20260507204607 | 15 | 247 | 16.1 | 30.6 | 0.00 | 0.00 | 0.00 | 50 | 1009.5 |
| 20260507203102 | 15 | 256 | 8.0 | 20.9 | 0.00 | 0.00 | 0.00 | 53 | 1009.6 |
| 20260507201613 | 13 | 279 | 14.5 | 24.1 | 0.00 | 0.00 | 0.00 | 53 | 1009.6 |
| 20260507200057 | 14 | 244 | 16.1 | 29.0 | 0.00 | 0.00 | 0.00 | 51 | 1009.8 |
| 20260507194634 | 15 | 287 | 9.7 | 20.9 | 0.00 | 0.00 | 0.00 | 54 | 1010.0 |
| 20260507193056 | 13 | 277 | 12.9 | 17.7 | 0.00 | 0.00 | 0.00 | 57 | 1010.1 |
| 20260507191600 | 13 | 300 | 8.0 | 16.1 | 0.00 | 0.00 | 0.00 | 57 | 1010.2 |
| 20260507190106 | 13 | 296 | 9.7 | 19.3 | 0.00 | 0.00 | 0.00 | 58 | 1010.3 |
| 20260507184606 | 13 | 317 | 9.7 | 20.9 | 0.00 | 0.00 | 0.00 | 54 | 1010.4 |
| 20260507183059 | 14 | 289 | 12.9 | 20.9 | 0.00 | 0.00 | 0.00 | 51 | 1010.6 |
| 20260507181557 | 13 | 293 | 14.5 | 20.9 | 0.00 | 0.00 | 0.00 | 55 | 1010.6 |
| 20260507180106 | 13 | 278 | 16.1 | 24.1 | 0.00 | 0.00 | 0.00 | 53 | 1010.8 |
| 20260507174557 | 14 | 269 | 9.7 | 20.9 | 0.00 | 0.00 | 0.00 | 57 | 1011.0 |
| 20260507173102 | 13 | 276 | 11.3 | 22.5 | 0.00 | 0.00 | 0.00 | 55 | 1011.2 |
| 20260507171554 | 13 | 276 | 9.7 | 29.0 | 0.00 | 0.00 | 0.00 | 54 | 1011.4 |
| 20260507170056 | 13 | 245 | 8.0 | 24.1 | 0.00 | 0.00 | 0.00 | 58 | 1011.6 |
| 20260507164606 | 14 | 262 | 6.4 | 19.3 | 0.00 | 0.00 | 0.00 | 57 | 1011.6 |
| 20260507163106 | 13 | 260 | 4.8 | 24.1 | 0.00 | 0.00 | 0.00 | 60 | 1011.8 |
| 20260507161558 | 13 | 316 | 11.3 | 19.3 | 0.00 | 0.00 | 0.00 | 57 | 1012.1 |
| 20260507160056 | 12 | 231 | 4.8 | 20.9 | 0.00 | 0.00 | 0.00 | 61 | 1012.0 |
| 20260507154559 | 13 | 257 | 11.3 | 20.9 | 0.00 | 0.03 | 0.00 | 57 | 1012.3 |
| 20260507153058 | 13 | 262 | 11.3 | 22.5 | 0.00 | 0.03 | 0.00 | 54 | 1012.3 |
| 20260507151557 | 12 | 277 | 6.4 | 25.7 | 0.00 | 0.03 | 0.00 | 61 | 1012.5 |
| 20260507150100 | 12 | 245 | 6.4 | 16.1 | 0.00 | 0.03 | 0.00 | 65 | 1012.7 |
| 20260507144600 | 12 | 246 | 4.8 | 17.7 | 0.00 | 0.05 | 0.00 | 61 | 1012.9 |
| 20260507143107 | 11 | 249 | 9.7 | 17.7 | 0.00 | 0.05 | 0.00 | 61 | 1013.3 |
| 20260507141555 | 11 | 313 | 4.8 | 17.7 | 0.00 | 0.05 | 0.00 | 67 | 1013.3 |
| 20260507140057 | 11 | 300 | 4.8 | 11.3 | 0.00 | 0.05 | 0.00 | 67 | 1013.5 |
| 20260507134559 | 10 | 281 | 6.4 | 16.1 | 0.00 | 0.05 | 0.00 | 66 | 1013.6 |
| 20260507133100 | 10 | 221 | 8.0 | 14.5 | 0.00 | 0.05 | 0.00 | 70 | 1013.8 |
| 20260507131611 | 10 | 240 | 4.8 | 14.5 | 0.00 | 0.05 | 0.00 | 72 | 1013.7 |
| 20260507130058 | 9 | 229 | 6.4 | 12.9 | 0.00 | 0.05 | 0.00 | 75 | 1013.7 |
| 20260507124600 | 8 | 254 | 4.8 | 9.7 | 0.00 | 0.13 | 0.00 | 79 | 1013.7 |
| 20260507123059 | 8 | 250 | 4.8 | 9.7 | 0.00 | 0.13 | 0.00 | 83 | 1013.9 |
| 20260507121557 | 7 | 255 | 4.8 | 8.0 | 0.00 | 0.13 | 0.00 | 92 | 1013.8 |
| 20260507120058 | 6 | 224 | 0.0 | 4.8 | 0.00 | 0.13 | 0.00 | 95 | 1013.8 |
| 20260507114605 | 5 | 0 | 0.0 | 3.2 | 0.00 | 0.15 | 0.00 | 95 | 1013.7 |
| 20260507113100 | 3 | 0 | 0.0 | 0.0 | 0.00 | 0.15 | 0.00 | 95 | 1013.7 |
| 20260507111556 | 3 | 0 | 0.0 | 0.0 | 0.00 | 0.15 | 0.00 | 94 | 1013.3 |
| 20260507110056 | 2 | 0 | 0.0 | 0.0 | 0.00 | 0.15 | 0.00 | 94 | 1013.4 |
| 20260507104600 | 1 | 0 | 0.0 | 0.0 | 0.00 | 0.41 | 0.00 | 94 | 1013.3 |
| 20260507103055 | 2 | 0 | 0.0 | 0.0 | 0.00 | 0.41 | 0.00 | 93 | 1013.2 |
| 20260507101557 | 2 | 0 | 0.0 | 0.0 | 0.00 | 0.41 | 0.00 | 93 | 1013.0 |
| 20260507100055 | 2 | 0 | 0.0 | 0.0 | 0.00 | 0.41 | 0.00 | 93 | 1013.1 |
| 20260507094555 | 2 | 0 | 0.0 | 0.0 | 0.00 | 0.58 | 0.00 | 93 | 1012.9 |
| 20260507093059 | 3 | 0 | 0.0 | 0.0 | 0.00 | 0.58 | 0.00 | 92 | 1012.9 |
| 20260507091559 | 3 | 0 | 0.0 | 0.0 | 0.00 | 0.58 | 0.00 | 91 | 1013.1 |
| 20260507090101 | 3 | 0 | 0.0 | 0.0 | 0.00 | 0.58 | 0.00 | 90 | 1013.0 |
| 20260507084603 | 4 | 0 | 0.0 | 0.0 | 0.00 | 0.66 | 0.00 | 89 | 1013.1 |
| 20260507083104 | 4 | 0 | 0.0 | 0.0 | 0.00 | 0.66 | 0.00 | 88 | 1013.2 |
| 20260507081556 | 5 | 0 | 0.0 | 0.0 | 0.00 | 0.66 | 0.00 | 84 | 1013.0 |
| 20260507080115 | 6 | 0 | 0.0 | 0.0 | 0.00 | 0.66 | 0.00 | 80 | 1012.9 |
| 20260507074602 | 6 | 0 | 0.0 | 1.6 | 0.00 | 0.71 | 0.00 | 82 | 1012.9 |
| 20260507073100 | 6 | 354 | 0.0 | 3.2 | 0.00 | 0.71 | 0.00 | 80 | 1013.0 |
| 20260507071610 | 7 | 0 | 0.0 | 0.0 | 0.00 | 0.71 | 0.00 | 83 | 1012.9 |
| 20260507070057 | 7 | 0 | 0.0 | 1.6 | 0.00 | 0.71 | 0.00 | 84 | 1013.2 |
| 20260507064559 | 7 | 0 | 0.0 | 1.6 | 0.00 | 0.81 | 0.00 | 82 | 1013.1 |
| 20260507063056 | 7 | 9 | 1.6 | 6.4 | 0.00 | 0.81 | 0.00 | 80 | 1013.1 |
| 20260507061558 | 7 | 1 | 1.6 | 4.8 | 0.00 | 0.81 | 0.00 | 77 | 1013.3 |
| 20260507060057 | 7 | 0 | 0.0 | 0.0 | 0.00 | 0.81 | 0.00 | 75 | 1013.5 |
| 20260507054554 | 8 | 0 | 0.0 | 0.0 | 0.00 | 0.91 | 0.00 | 74 | 1013.5 |
| 20260507053120 | 7 | 0 | 0.0 | 3.2 | 0.00 | 0.91 | 0.00 | 77 | 1013.8 |
| 20260507051605 | 7 | 1 | 1.6 | 4.8 | 0.00 | 0.91 | 0.00 | 79 | 1013.7 |
| 20260507050059 | 8 | 0 | 0.0 | 0.0 | 0.00 | 0.91 | 0.00 | 76 | 1013.7 |
| 20260507044557 | 8 | 0 | 0.0 | 3.2 | 0.00 | 0.94 | 0.00 | 78 | 1013.8 |
| 20260507043054 | 8 | 356 | 1.6 | 4.8 | 0.00 | 0.94 | 0.00 | 78 | 1013.7 |
| 20260507041557 | 8 | 352 | 3.2 | 4.8 | 0.00 | 0.94 | 0.00 | 78 | 1013.8 |
| 20260507040100 | 8 | 1 | 1.6 | 4.8 | 0.00 | 0.94 | 0.00 | 79 | 1013.7 |
| 20260507034556 | 8 | 340 | 3.2 | 6.4 | 0.00 | 0.94 | 0.94 | 76 | 1013.7 |
| 20260507033055 | 8 | 0 | 0.0 | 4.8 | 0.00 | 0.94 | 0.94 | 78 | 1013.6 |
| 20260507031558 | 8 | 359 | 3.2 | 4.8 | 0.00 | 0.94 | 0.94 | 80 | 1013.2 |
| 20260507030057 | 8 | 360 | 3.2 | 4.8 | 0.00 | 0.94 | 0.94 | 80 | 1013.2 |
| 20260507024603 | 8 | 0 | 0.0 | 4.8 | 0.00 | 0.94 | 0.94 | 78 | 1013.2 |
| 20260507023054 | 8 | 4 | 3.2 | 11.3 | 0.00 | 0.94 | 0.94 | 78 | 1013.2 |
| 20260507021558 | 9 | 359 | 3.2 | 9.7 | 0.00 | 0.94 | 0.94 | 78 | 1013.0 |
| 20260507020057 | 9 | 1 | 3.2 | 6.4 | 0.00 | 0.94 | 0.94 | 80 | 1012.7 |
| 20260507014612 | 9 | 1 | 3.2 | 11.3 | 0.00 | 0.94 | 0.94 | 78 | 1012.5 |
| 20260507013056 | 10 | 357 | 6.4 | 16.1 | 0.00 | 0.94 | 0.94 | 77 | 1012.3 |
| 20260507011604 | 10 | 15 | 8.0 | 20.9 | 0.00 | 0.94 | 0.94 | 79 | 1012.4 |
| 20260507010104 | 10 | 360 | 4.8 | 8.0 | 0.00 | 0.94 | 0.94 | 82 | 1012.5 |
| 20260507004612 | 10 | 359 | 3.2 | 6.4 | 0.00 | 0.94 | 0.94 | 83 | 1012.6 |
| 20260507003059 | 10 | 0 | 0.0 | 0.0 | 0.00 | 0.94 | 0.94 | 87 | 1012.7 |
| 20260507001557 | 11 | 0 | 0.0 | 4.8 | 0.00 | 0.94 | 0.94 | 86 | 1013.0 |
| 20260507000104 | 10 | 0 | 0.0 | 1.6 | 0.00 | 0.94 | 0.94 | 85 | 1012.3 |
| 20260506234606 | 11 | 0 | 0.0 | 3.2 | 0.00 | 0.94 | 0.94 | 86 | 1012.3 |
| 20260506233059 | 11 | 0 | 1.6 | 4.8 | 0.00 | 0.94 | 0.94 | 85 | 1012.2 |
| 20260506231558 | 11 | 314 | 1.6 | 6.4 | 0.00 | 0.94 | 0.94 | 83 | 1012.0 |
| 20260506230059 | 11 | 0 | 1.6 | 4.8 | 0.00 | 0.94 | 0.94 | 84 | 1011.7 |
| 20260506224602 | 11 | 312 | 0.0 | 0.0 | 0.00 | 0.94 | 0.94 | 84 | 1011.5 |
| 20260506223110 | 11 | 0 | 0.0 | 4.8 | 0.00 | 0.94 | 0.94 | 83 | 1011.5 |
| 20260506221559 | 11 | 0 | 0.0 | 4.8 | 0.00 | 0.94 | 0.94 | 84 | 1011.6 |
| 20260506220059 | 11 | 359 | 1.6 | 8.0 | 0.00 | 0.94 | 0.94 | 84 | 1011.6 |
| 20260506214605 | 11 | 354 | 3.2 | 9.7 | 0.00 | 0.94 | 0.94 | 83 | 1011.4 |
| 20260506213056 | 11 | 335 | 6.4 | 11.3 | 0.00 | 0.94 | 0.94 | 82 | 1011.2 |